EW8280 Weather Reports


time (UTC)temp
C
wind
direction
speed
KPH
gust
KPH
rain 1hr
cm
rain 24hr
cm
rain mn
cm
humidity
%
barometer
mb
20260906103104 16 148 0.0 0.0 0.00 0.00 0.00 89 1015.5
20260906101538 16 148 0.0 0.0 0.00 0.00 0.00 89 1015.3
20260906100024 16 148 0.0 0.0 0.00 0.00 0.00 89 1015.2
20260906094557 16 148 0.0 0.0 0.00 0.00 0.00 89 1015.0
20260906093024 16 148 0.0 0.0 0.00 0.00 0.00 88 1015.1
20260906091600 17 148 0.0 0.0 0.00 0.00 0.00 88 1014.9
20260906090037 17 148 0.0 0.0 0.00 0.00 0.00 88 1015.0
20260906084518 17 148 0.0 0.0 0.00 0.00 0.00 88 1015.0
20260906083057 17 148 0.0 0.0 0.00 0.00 0.00 88 1014.8
20260906081530 17 148 0.0 1.6 0.00 0.00 0.00 87 1014.8
20260906080008 18 119 0.0 0.0 0.00 0.00 0.00 87 1014.7
20260906074544 18 118 0.0 0.0 0.00 0.00 0.00 86 1014.5
20260906073018 18 118 0.0 0.0 0.00 0.00 0.00 86 1014.3
20260906071555 19 118 0.0 0.0 0.00 0.00 0.00 85 1014.2
20260906070032 19 118 0.0 1.6 0.00 0.00 0.00 85 1014.4
20260906064512 19 62 0.0 0.0 0.00 0.00 0.00 86 1014.6
20260906063053 19 59 0.0 0.0 0.00 0.00 0.00 87 1014.7
20260906061531 19 59 0.0 0.0 0.00 0.03 0.00 87 1014.7
20260906060006 19 52 0.0 0.0 0.00 0.03 0.00 87 1014.5
20260906054539 19 54 0.0 0.0 0.00 0.03 0.00 86 1014.3
20260906053012 20 55 0.0 0.0 0.00 0.03 0.00 86 1014.0
20260906051555 20 57 0.0 0.0 0.00 0.10 0.00 86 1014.0
20260906050025 20 44 0.0 1.6 0.00 0.10 0.00 85 1014.1
20260906044558 21 42 0.0 1.6 0.00 0.10 0.00 85 1013.8
20260906043033 21 74 0.0 0.0 0.00 0.10 0.00 84 1013.7
20260906041504 21 86 0.0 1.6 0.00 0.10 0.00 85 1013.5
20260906040041 21 100 0.0 1.6 0.00 0.10 0.00 87 1013.6
20260906034521 22 138 0.0 1.6 0.00 0.10 0.00 89 1013.4
20260906033001 22 146 0.0 0.0 0.00 0.10 0.00 89 1013.5
20260906031544 22 177 0.0 1.6 0.00 0.10 0.00 89 1013.6
20260906030022 22 136 0.0 0.0 0.00 0.10 0.00 87 1013.6
20260906024601 22 132 0.0 0.0 0.00 0.10 0.00 86 1013.6
20260906023042 22 131 0.0 0.0 0.00 0.10 0.00 86 1013.4
20260906021533 22 131 0.0 0.0 0.00 0.10 0.00 85 1013.3
20260906020054 22 148 0.0 0.0 0.00 0.10 0.00 85 1013.1
20260906014521 22 150 0.0 0.0 0.00 0.10 0.00 85 1013.1
20260906013100 22 157 0.0 1.6 0.00 0.10 0.00 85 1013.0
20260906011536 22 159 0.0 1.6 0.00 0.10 0.00 85 1012.7
20260906010018 22 165 0.0 1.6 0.00 0.10 0.00 85 1012.6
20260906004554 22 175 0.0 3.2 0.00 0.10 0.00 84 1012.6
20260906003034 23 146 0.0 0.0 0.00 0.10 0.00 84 1012.4
20260906001514 23 92 0.0 1.6 0.00 0.10 0.00 84 1012.1
20260906000049 23 174 0.0 1.6 0.00 0.10 0.00 84 1012.0
20260905234526 23 122 0.0 3.2 0.00 0.10 0.00 83 1012.0
20260905233004 23 177 0.0 3.2 0.00 0.10 0.00 83 1011.8
20260905231541 23 150 0.0 1.6 0.00 0.10 0.00 83 1011.8
20260905230018 24 158 0.0 0.0 0.00 0.10 0.00 83 1011.7
20260905224559 24 18 0.0 0.0 0.00 0.10 0.00 82 1011.5
20260905223037 25 132 0.0 0.0 0.00 0.10 0.00 82 1011.3
20260905221515 25 57 0.0 1.6 0.00 0.10 0.00 80 1011.2
20260905220055 26 49 0.0 3.2 0.00 0.10 0.00 77 1011.0
20260905214537 27 198 0.0 4.8 0.00 0.10 0.00 76 1010.8
20260905213017 27 217 0.0 4.8 0.00 0.10 0.00 76 1010.7
20260905211608 27 235 0.0 3.2 0.00 0.10 0.00 76 1010.9
20260905210035 27 77 0.0 3.2 0.00 0.10 0.00 76 1010.9
20260905204517 27 148 0.0 11.3 0.00 0.10 0.00 74 1010.8
20260905203057 27 195 0.0 6.4 0.00 0.10 0.00 77 1010.9
20260905201538 27 190 0.0 6.4 0.00 0.10 0.00 75 1011.1
20260905200024 27 165 0.0 4.8 0.00 0.10 0.00 77 1011.2
20260905194559 26 182 0.0 4.8 0.00 0.10 0.00 78 1011.3
20260905193037 27 184 0.0 1.6 0.00 0.10 0.00 78 1011.3
20260905191515 27 50 0.0 3.2 0.00 0.10 0.00 78 1011.4
20260905190057 28 125 0.0 9.7 0.00 0.10 0.00 75 1011.2
20260905184538 28 169 0.0 1.6 0.00 0.10 0.00 75 1011.3
20260905183010 28 169 0.0 3.2 0.00 0.10 0.00 74 1011.3
20260905181548 28 179 0.0 3.2 0.00 0.10 0.00 72 1011.2
20260905180027 28 193 0.0 1.6 0.00 0.10 0.00 75 1011.0
20260905174559 28 157 0.0 3.2 0.00 0.10 0.00 76 1011.1
20260905173031 28 204 0.0 1.6 0.00 0.10 0.00 78 1011.2
20260905171508 27 194 0.0 3.2 0.00 0.56 0.00 79 1011.3
20260905170047 27 42 0.0 0.0 0.00 0.56 0.00 77 1011.3
20260905164520 27 169 0.0 0.0 0.00 0.56 0.00 79 1011.5
20260905163056 26 94 0.0 1.6 0.00 0.56 0.00 81 1011.4
20260905161529 26 93 0.0 1.6 0.00 0.76 0.00 83 1011.4
20260905160014 25 80 0.0 1.6 0.00 0.76 0.00 86 1011.4
20260905154537 25 80 0.0 1.6 0.00 0.76 0.00 87 1011.4
20260905153016 24 57 0.0 0.0 0.00 0.76 0.00 89 1011.3
20260905151549 24 55 0.0 0.0 0.00 0.76 0.00 92 1011.3
20260905150027 23 53 0.0 3.2 0.00 0.76 0.00 93 1011.0
20260905144509 23 109 0.0 0.0 0.00 0.76 0.00 94 1011.1
20260905143043 23 109 0.0 0.0 0.00 0.76 0.00 94 1011.1
20260905141521 22 109 0.0 1.6 0.00 0.76 0.00 94 1011.3
20260905140106 22 105 0.0 0.0 0.00 0.76 0.00 95 1011.3
20260905134537 22 105 0.0 0.0 0.00 0.76 0.00 95 1011.2
20260905133013 22 105 0.0 0.0 0.00 0.76 0.00 95 1011.1
20260905131611 22 74 0.0 0.0 0.00 0.76 0.00 95 1011.0
20260905130028 22 69 0.0 0.0 0.00 0.76 0.00 95 1011.0
20260905124512 21 67 0.0 0.0 0.00 0.76 0.00 95 1010.8
20260905123042 21 67 0.0 0.0 0.00 0.76 0.00 95 1010.8
20260905121518 21 67 0.0 0.0 0.00 0.76 0.76 95 1010.5
20260905120001 21 67 0.0 0.0 0.00 0.76 0.76 95 1010.3
20260905114549 21 65 0.0 0.0 0.00 0.76 0.76 95 1010.1
20260905113024 21 65 0.0 0.0 0.00 0.76 0.76 95 1009.9
20260905111505 21 65 0.0 0.0 0.00 0.76 0.76 94 1009.9
20260905110040 21 65 0.0 0.0 0.00 0.76 0.76 95 1009.7
20260905104522 21 62 0.0 0.0 0.00 0.76 0.76 94 1009.6